Weather History for KPGA - March, 2013

Change the Weather History Date:

Friday, March 29, 2013

  Actual Average Record
Temperature  
Mean Temperature 64 °F -  
Max Temperature 77 °F 60 °F 81 °F (2015)
Min Temperature 50 °F 38 °F 24 °F (1975)
Degree Days  
Heating Degree Days 2    
Growing Degree Days 14 (Base 50)    
Moisture  
Dew Point 27 °F    
Average Humidity 25    
Maximum Humidity 43    
Minimum Humidity 6    
Precipitation  
Precipitation 0.00 in - - ()
Sea Level Pressure  
Sea Level Pressure 30.00 in    
Wind  
Wind Speed 3 mph (North)    
Max Wind Speed 7 mph    
Max Gust Speed -    
Visibility 10 miles    
Events      
Averages and records for this station are not official NWS values.
T = Trace of Precipitation, MM = Missing Value Source: NWS Daily Summary

Daily Weather History Graph

Daily Weather History Graph

Search for Another Location

Airport or City:

Trip Planner

Search our weather history database for the weather conditions in past years. The results will help you decide how hot, cold, wet, or windy it might be!

Date:

Astronomy

Mar. 29, 2013 Rise Set
Actual Time 6:15 AM MST 6:45 PM MST
Civil Twilight 5:49 AM MST 7:11 PM MST
Nautical Twilight 5:18 AM MST 7:42 PM MST
Astronomical Twilight 4:47 AM MST 8:14 PM MST
Moon 9:44 PM MST (3/29) 7:31 AM MST (3/29)
Length of Visible Light 13h 22m
Length of Day
12h 30m
Waning Gibbous, 93% of the Moon is Illuminated
Mar 29
Waning Gibbous
Apr 2
Last Quarter
Apr 10
New
Apr 18
First Quarter
Apr 25
Full

Hourly Weather History & Observations

Time (MST) Temp. Dew Point Humidity Pressure Visibility Wind Dir Wind Speed Gust Speed Precip Events Conditions
12:53 AM 60.1 °F 28.9 °F 31% 29.96 in 10.0 mi West 3.5 mph - N/A   Clear
1:53 AM 59.0 °F 30.0 °F 33% 29.97 in 10.0 mi Calm Calm - N/A   Clear
2:53 AM 55.0 °F 28.9 °F 37% 29.98 in 10.0 mi Calm Calm - N/A   Clear
3:53 AM 53.1 °F 28.9 °F 40% 29.99 in 10.0 mi Calm Calm - N/A   Clear
4:53 AM 54.0 °F 28.9 °F 38% 30.00 in 10.0 mi South 3.5 mph - N/A   Clear
5:53 AM 51.1 °F 28.9 °F 43% 30.03 in 10.0 mi Calm Calm - N/A   Clear
6:53 AM 52.0 °F 30.0 °F 43% 30.05 in 10.0 mi ESE 3.5 mph - N/A   Clear
7:53 AM 57.9 °F 28.9 °F 33% 30.07 in 10.0 mi Calm Calm - N/A   Clear
8:53 AM 60.1 °F 28.9 °F 31% 30.07 in 10.0 mi NE 3.5 mph - N/A   Clear
9:53 AM 63.0 °F 28.9 °F 28% 30.06 in 10.0 mi ENE 4.6 mph - N/A   Clear
10:53 AM 66.9 °F 28.0 °F 23% 30.04 in 10.0 mi NE 5.8 mph - N/A   Clear
11:53 AM 70.0 °F 28.0 °F 21% 30.02 in 10.0 mi Variable 3.5 mph - N/A   Clear
12:53 PM 71.1 °F 27.0 °F 19% 30.00 in 10.0 mi Variable 4.6 mph - N/A   Clear
1:53 PM 73.9 °F 26.1 °F 17% 29.97 in 10.0 mi ENE 6.9 mph - N/A   Clear
2:53 PM 75.0 °F 25.0 °F 16% 29.96 in 10.0 mi Variable 5.8 mph - N/A   Clear
3:53 PM 75.9 °F 23.0 °F 14% 29.94 in 10.0 mi North 4.6 mph - N/A   Clear
4:53 PM 75.0 °F 21.0 °F 13% 29.93 in 10.0 mi Calm Calm - N/A   Clear
5:53 PM 73.9 °F 21.9 °F 14% 29.95 in 10.0 mi NNW 6.9 mph - N/A   Clear
6:53 PM 70.0 °F 27.0 °F 20% 29.96 in 10.0 mi NNW 3.5 mph - N/A   Clear
7:53 PM 66.0 °F 28.0 °F 24% 29.97 in 10.0 mi West 3.5 mph - N/A   Clear
8:53 PM 63.0 °F 28.0 °F 27% 29.99 in 10.0 mi WSW 3.5 mph - N/A   Partly Cloudy
9:53 PM 63.0 °F 28.0 °F 27% 30.01 in 10.0 mi Calm Calm - N/A   Clear
10:53 PM 63.0 °F 28.0 °F 27% 30.00 in 10.0 mi WSW 4.6 mph - N/A   Clear
11:53 PM 60.1 °F 28.0 °F 30% 30.01 in 10.0 mi Calm Calm - N/A   Clear